TimeEST,TemperatureF,Dew PointF,Humidity,Sea Level PressureIn,VisibilityMPH,Wind Direction,Wind SpeedMPH,Gust SpeedMPH,PrecipitationIn,Events,Conditions,WindDirDegrees,DateUTC
1:52 AM,21.9,18.0,85,30.28,6.0,Calm,Calm,-,N/A,,Clear,0,2012-12-14 06:52:00
2:52 AM,23.0,19.9,88,30.27,7.0,Calm,Calm,-,N/A,,Clear,0,2012-12-14 07:52:00
3:52 AM,21.9,19.0,89,30.26,7.0,Calm,Calm,-,N/A,,Clear,0,2012-12-14 08:52:00
4:52 AM,21.9,18.0,85,30.24,8.0,ESE,3.5,-,N/A,,Clear,120,2012-12-14 09:52:00
5:52 AM,21.0,18.0,88,30.24,7.0,Calm,Calm,-,N/A,,Clear,0,2012-12-14 10:52:00
6:52 AM,21.0,18.0,88,30.23,6.0,Calm,Calm,-,N/A,,Clear,0,2012-12-14 11:52:00
7:52 AM,26.1,21.9,84,30.22,8.0,SSW,4.6,-,N/A,,Clear,200,2012-12-14 12:52:00
8:52 AM,37.0,28.0,70,30.22,10.0,SSW,4.6,-,N/A,,Clear,200,2012-12-14 13:52:00
9:52 AM,42.1,27.0,55,30.21,10.0,SW,8.1,-,N/A,,Clear,230,2012-12-14 14:52:00
10:52 AM,45.0,24.1,44,30.18,10.0,SW,6.9,16.1,N/A,,Clear,230,2012-12-14 15:52:00
11:52 AM,46.9,21.9,37,30.12,10.0,WSW,6.9,16.1,N/A,,Clear,250,2012-12-14 16:52:00
12:52 PM,48.9,21.0,33,30.09,10.0,WSW,6.9,18.4,N/A,,Clear,240,2012-12-14 17:52:00
1:52 PM,50.0,21.0,32,30.07,10.0,WSW,11.5,17.3,N/A,,Clear,250,2012-12-14 18:52:00
2:52 PM,48.9,21.0,33,30.06,10.0,WSW,9.2,-,N/A,,Clear,240,2012-12-14 19:52:00
3:52 PM,46.0,21.0,37,30.09,10.0,West,8.1,-,N/A,,Clear,260,2012-12-14 20:52:00
4:52 PM,42.1,19.9,41,30.10,10.0,West,5.8,-,N/A,,Clear,280,2012-12-14 21:52:00
5:52 PM,35.1,21.0,57,30.12,10.0,Calm,Calm,-,N/A,,Clear,0,2012-12-14 22:52:00
6:52 PM,35.1,21.9,59,30.15,10.0,WNW,4.6,-,N/A,,Clear,290,2012-12-14 23:52:00
7:52 PM,35.1,23.0,61,30.16,10.0,NW,3.5,-,N/A,,Clear,310,2012-12-15 00:52:00
8:52 PM,30.0,23.0,75,30.17,10.0,Calm,Calm,-,N/A,,Clear,0,2012-12-15 01:52:00
9:52 PM,28.9,24.1,82,30.17,10.0,Calm,Calm,-,N/A,,Clear,0,2012-12-15 02:52:00
10:52 PM,26.1,21.0,81,30.17,10.0,Calm,Calm,-,N/A,,Clear,0,2012-12-15 03:52:00
11:52 PM,26.1,21.9,84,30.16,10.0,Calm,Calm,-,N/A,,Clear,0,2012-12-15 04:52:00